Date String (YYYY-MM-DD hh:mm:ss) UTC,Instrument flags,Ambient pressure (hPa),Sample flow (lpm),Bypass flow (lpm),Sample temperature (°C),Ambient temperature (°C),ASC tube jacket temperature (°C),LED temperature (°C),Box temperature (°C),Sample RH (%),Span deviation,Mass concentration (μg/m³),Mass concentration (μg/m³),Mass concentration (μg/m³)
DateTimeUTC,F1_M11,P_M11,Q1_M11,Q2_M11,T1_M11,T2_M11,T3_M11,T4_M11,T5_M11,U1_M11,ZSPAN_M11,X2_M11,X0_M11,X1_M11
2022-03-16 06:00:00,,0822.9,4.98,0.00,28.3,27.4,00.0,37.4,30.0,06.5,0000.0,0000.95,0001.93,0000.55
2022-03-16 06:01:00,,0822.9,5.01,0.00,28.3,27.4,00.0,37.3,30.0,06.6,0000.0,0000.96,0001.97,0000.55
2022-03-16 06:02:00,,0822.9,5.00,0.00,28.3,27.4,00.0,37.3,29.9,06.5,0000.0,0000.93,0001.85,0000.56
2022-03-16 06:03:00,,0822.9,4.99,0.00,28.3,27.4,00.0,37.3,30.0,06.4,0000.0,0000.94,0001.80,0000.56
2022-03-16 06:04:00,,0822.9,5.01,0.00,28.3,27.4,00.0,37.3,30.0,06.4,0000.0,0000.99,0001.88,0000.57
2022-03-16 06:05:00,,0823.0,4.99,0.00,28.3,27.4,00.0,37.3,30.0,06.5,0000.0,0001.02,0001.91,0000.59
2022-03-16 06:06:00,,0822.9,4.99,0.00,28.3,27.4,00.0,37.3,30.0,06.6,0000.0,0001.00,0001.84,0000.60
2022-03-16 06:07:00,,0822.9,5.01,0.00,28.3,27.4,00.0,37.3,30.0,06.6,0000.0,0001.03,0001.90,0000.61
2022-03-16 06:08:00,,0823.0,5.00,0.00,28.3,27.4,00.0,37.3,29.9,06.7,0000.0,0001.04,0001.95,0000.60
2022-03-16 06:09:00,,0822.9,4.99,0.00,28.3,27.4,00.0,37.3,30.0,06.7,0000.0,0001.04,0001.92,0000.60
2022-03-16 06:10:00,,0823.0,5.00,0.00,28.3,27.4,00.0,37.3,30.0,06.7,0000.0,0001.05,0001.95,0000.60
2022-03-16 06:11:00,,0823.0,5.01,0.00,28.3,27.4,00.0,37.3,30.0,06.7,0000.0,0001.07,0001.99,0000.61
2022-03-16 06:12:00,,0822.9,5.00,0.00,28.3,27.5,00.0,37.3,30.1,06.7,0000.0,0001.06,0001.96,0000.60
2022-03-16 06:13:00,,0822.8,4.99,0.00,28.3,27.5,00.0,37.3,30.1,06.7,0000.0,0001.04,0001.91,0000.59
2022-03-16 06:14:00,,0822.8,4.99,0.00,28.3,27.5,00.0,37.3,30.1,06.7,0000.0,0000.99,0001.82,0000.59
2022-03-16 06:15:00,,0822.8,4.99,0.00,28.3,27.5,00.0,37.3,30.1,06.8,0000.0,0000.94,0001.75,0000.57
2022-03-16 06:16:00,,0822.8,5.01,0.00,28.3,27.5,00.0,37.3,30.1,06.8,0000.0,0000.91,0001.67,0000.56
2022-03-16 06:17:00,,0822.8,5.00,0.00,28.4,27.5,00.0,37.3,30.1,06.9,0000.0,0000.95,0001.86,0000.55
2022-03-16 06:18:00,,0822.7,4.99,0.00,28.4,27.5,00.0,37.3,30.1,06.8,0000.0,0000.99,0002.10,0000.55
2022-03-16 06:19:00,,0822.7,5.00,0.00,28.4,27.5,00.0,37.3,30.1,06.7,0000.0,0001.01,0002.26,0000.55
2022-03-16 06:20:00,,0822.8,5.00,0.00,28.4,27.5,00.0,37.3,30.1,06.6,0000.0,0001.03,0002.39,0000.56
2022-03-16 06:21:00,,0822.8,5.01,0.00,28.4,27.5,00.0,37.3,30.1,06.6,0000.0,0001.01,0002.45,0000.56
2022-03-16 06:22:00,,0822.8,4.98,0.00,28.3,27.5,00.0,37.3,30.0,06.6,0000.0,0001.01,0003.47,0000.56
2022-03-16 06:23:00,,0822.8,4.99,0.00,28.3,27.5,00.0,37.3,30.0,06.6,0000.0,0001.02,0003.45,0000.56
2022-03-16 06:24:00,,0822.7,4.99,0.00,28.3,27.5,00.0,37.3,30.0,06.8,0000.0,0001.02,0003.45,0000.56
2022-03-16 06:25:00,,0822.7,5.01,0.00,28.3,27.5,00.0,37.3,30.1,06.8,0000.0,0001.01,0003.55,0000.56
2022-03-16 06:26:00,,0822.7,5.00,0.00,28.3,27.5,00.0,37.3,30.0,06.8,0000.0,0001.01,0003.57,0000.55
2022-03-16 06:27:00,,0822.7,4.99,0.00,28.3,27.4,00.0,37.3,30.0,06.8,0000.0,0001.04,0003.65,0000.56
2022-03-16 06:28:00,,0822.6,4.99,0.00,28.3,27.4,00.0,37.3,30.0,06.9,0000.0,0001.05,0004.93,0000.55
2022-03-16 06:29:00,,0822.7,5.01,0.00,28.3,27.4,00.0,37.3,30.0,06.9,0000.0,0001.05,0004.98,0000.55
2022-03-16 06:30:00,,0822.6,5.00,0.00,28.3,27.4,00.0,37.3,30.0,06.9,0000.0,0001.02,0004.75,0000.54
2022-03-16 06:31:00,,0822.6,4.99,0.00,28.3,27.4,00.0,37.3,30.0,06.9,0000.0,0001.00,0004.60,0000.52
2022-03-16 06:32:00,,0822.7,4.99,0.00,28.3,27.4,00.0,37.3,30.0,06.9,0000.0,0001.00,0004.48,0000.51
2022-03-16 06:33:00,,0822.7,4.99,0.00,28.3,27.4,00.0,37.3,30.1,06.9,0000.0,0001.00,0003.53,0000.52
2022-03-16 06:34:00,,0822.7,5.01,0.00,28.3,27.4,00.0,37.3,30.0,06.9,0000.0,0001.00,0003.57,0000.52
2022-03-16 06:35:00,,0822.7,5.02,0.00,28.3,27.4,00.0,37.2,30.0,06.9,0000.0,0001.02,0003.68,0000.52
2022-03-16 06:36:00,,0822.7,4.99,0.00,28.2,27.4,00.0,37.2,29.9,06.9,0000.0,0001.03,0003.58,0000.53
2022-03-16 06:37:00,,0822.7,4.99,0.00,28.2,27.3,00.0,37.2,29.9,07.2,0000.0,0001.00,0003.48,0000.53
2022-03-16 06:38:00,,0822.7,4.99,0.00,28.2,27.3,00.0,37.2,29.9,07.1,0000.0,0000.99,0003.46,0000.53
2022-03-16 06:39:00,,0822.7,5.01,0.00,28.2,27.3,00.0,37.2,29.9,07.1,0000.0,0000.94,0002.19,0000.52
2022-03-16 06:40:00,,0822.9,4.99,0.00,28.2,27.3,00.0,37.2,29.8,07.7,0000.0,0000.93,0001.82,0000.53
2022-03-16 06:41:00,,0822.9,5.02,0.00,28.1,27.3,00.0,37.2,29.8,07.4,0000.0,0000.92,0001.82,0000.53
2022-03-16 06:42:00,,0822.8,4.99,0.00,28.1,27.3,00.0,37.2,29.8,07.6,0000.0,0000.92,0001.90,0000.53
2022-03-16 06:43:00,,0822.7,4.98,0.00,28.1,27.2,00.0,37.2,29.8,07.8,0000.0,0000.95,0002.00,0000.54
2022-03-16 06:44:00,,0822.6,5.01,0.00,28.1,27.2,00.0,37.2,29.8,08.0,0000.0,0000.95,0001.94,0000.55
2022-03-16 06:45:00,,0822.6,5.00,0.00,28.1,27.2,00.0,37.2,29.7,08.1,0000.0,0000.93,0001.88,0000.56
2022-03-16 06:46:00,,0822.5,4.99,0.00,28.1,27.2,00.0,37.1,29.7,08.2,0000.0,0000.94,0001.79,0000.57
2022-03-16 06:47:00,,0822.6,4.99,0.00,28.0,27.1,00.0,37.1,29.7,08.2,0000.0,0000.96,0001.84,0000.59
2022-03-16 06:48:00,,0822.6,5.01,0.00,28.0,27.1,00.0,37.1,29.7,08.1,0000.0,0001.03,0002.02,0000.61
2022-03-16 06:49:00,,0822.6,5.01,0.00,28.0,27.1,00.0,37.1,29.6,08.1,0000.0,0001.08,0002.10,0000.63
2022-03-16 06:50:00,,0822.6,4.99,0.00,28.0,27.1,00.0,37.1,29.6,08.1,0000.0,0001.11,0002.14,0000.66
2022-03-16 06:51:00,,0822.5,5.01,0.00,28.0,27.1,00.0,37.1,29.6,08.1,0000.0,0001.08,0002.02,0000.68
2022-03-16 06:52:00,,0822.5,5.00,0.00,28.0,27.1,00.0,37.0,29.6,08.1,0000.0,0001.10,0002.06,0000.70
2022-03-16 06:53:00,,0822.5,4.98,0.00,28.0,27.1,00.0,37.0,29.6,08.2,0000.0,0001.13,0002.14,0000.73
2022-03-16 06:54:00,,0822.5,4.99,0.00,28.0,27.1,00.0,37.0,29.6,08.1,0000.0,0001.14,0002.11,0000.74
2022-03-16 06:55:00,,0822.6,5.00,0.00,28.0,27.1,00.0,37.0,29.6,08.2,0000.0,0001.16,0002.15,0000.76
2022-03-16 06:56:00,,0822.5,5.01,0.00,28.0,27.1,00.0,37.0,29.6,08.4,0000.0,0001.19,0002.64,0000.76
2022-03-16 06:57:00,,0822.5,4.99,0.00,28.0,27.1,00.0,37.0,29.7,08.3,0000.0,0001.18,0002.98,0000.77
2022-03-16 06:58:00,,0822.4,5.00,0.00,28.0,27.1,00.0,37.0,29.6,08.3,0000.0,0001.19,0002.96,0000.77
2022-03-16 06:59:00,,0822.5,5.00,0.00,28.0,27.1,00.0,37.0,29.7,08.3,0000.0,0001.17,0002.91,0000.77
